Martinsburg, WV

6:40 PM EST on November 18, 2019 (GMT -0500)
Eastern W Va Regional-Shepherd

Weather History for KMRB - September, 2019

Change the Weather History Date:

Saturday, September 28, 2019

  Actual Average Record
Temperature  
Mean Temperature 74 °F 60 °F  
Max Temperature 90 °F 72 °F 89 °F (1954)
Min Temperature 57 °F 49 °F 29 °F (1947)
Degree Days  
Heating Degree Days 0 6  
Month to date heating degree days 11 73  
Since 1 July heating degree days 12 80  
Cooling Degree Days 8 1  
Month to date cooling degree days 153 91  
Year to date cooling degree days 1204 883  
Growing Degree Days 24 (Base 50)    
Moisture  
Dew Point 63 °F    
Average Humidity 71    
Maximum Humidity 93    
Minimum Humidity 46    
Precipitation  
Precipitation 0.00 in 0.11 in 3.19 in (2004)
Month to date precipitation 0.80 3.32  
Year to date precipitation 34.32 29.56  
Sea Level Pressure  
Sea Level Pressure 30.06 in    
Wind  
Wind Speed 3 mph ()    
Max Wind Speed 16 mph    
Max Gust Speed 21 mph    
Visibility 10.0 miles    
Events Thunderstorm    
T = Trace of Precipitation, MM = Missing Value Source: Averaged Metar Reports

Daily Weather History Graph

Daily Weather History Graph

Search for Another Location

Airport or City:

Astronomy

Sep. 28, 2019 Rise Set
Actual Time 7:04 AM EDT 6:59 PM EDT
Civil Twilight 6:38 AM EDT 7:26 PM EDT
Nautical Twilight 6:06 AM EDT 7:57 PM EDT
Astronomical Twilight 5:35 AM EDT 8:28 PM EDT
Moon 6:39 AM EDT (9/28) 7:24 PM EDT (9/28)
Length of Visible Light 12h 48m
Length of Day
11h 54m
Waning Crescent, 0% of the Moon is Illuminated
Sep 28
Waning Crescent
Sep 28
New
Oct 5
First Quarter
Oct 13
Full
Oct 21
Last Quarter

Hourly Weather History & Observations

Time (EDT) Temp. Heat Index Dew Point Humidity Pressure Visibility Wind Dir Wind Speed Gust Speed Precip Events Conditions
12:53 AM 64.9 °F - 57.9 °F 78% 30.05 in 10.0 mi SSE 4.6 mph - N/A   Clear
1:53 AM 64.9 °F - 57.0 °F 75% 30.05 in 10.0 mi Calm Calm - N/A   Clear
2:53 AM 61.0 °F - 57.0 °F 87% 30.05 in 10.0 mi Calm Calm - N/A   Clear
3:53 AM 59.0 °F - 55.9 °F 90% 30.05 in 10.0 mi Calm Calm - N/A   Clear
4:53 AM 57.9 °F - 55.9 °F 93% 30.06 in 10.0 mi Calm Calm - N/A   Clear
5:53 AM 59.0 °F - 55.9 °F 90% 30.07 in 10.0 mi Calm Calm - N/A   Clear
6:53 AM 57.9 °F - 55.9 °F 93% 30.07 in 10.0 mi Calm Calm - N/A   Partly Cloudy
7:53 AM 61.0 °F - 57.9 °F 90% 30.08 in 10.0 mi Calm Calm - N/A   Scattered Clouds
8:53 AM 66.0 °F - 60.1 °F 81% 30.08 in 10.0 mi Calm Calm - N/A   Partly Cloudy
9:53 AM 69.1 °F - 61.0 °F 75% 30.09 in 10.0 mi SSE 3.5 mph - N/A   Clear
10:53 AM 73.0 °F - 62.1 °F 68% 30.08 in 10.0 mi Variable 4.6 mph - N/A   Clear
11:53 AM 79.0 °F - 64.9 °F 62% 30.07 in 10.0 mi Variable 4.6 mph - N/A   Clear
12:53 PM 84.0 °F 86.3 °F 66.0 °F 55% 30.06 in 10.0 mi ESE 5.8 mph - N/A   Clear
1:53 PM 87.1 °F 89.2 °F 66.0 °F 49% 30.03 in 10.0 mi Calm Calm - N/A   Clear
2:53 PM 89.1 °F 91.3 °F 66.0 °F 46% 30.02 in 10.0 mi South 8.1 mph - N/A   Clear
3:53 PM 88.0 °F 91.4 °F 68.0 °F 51% 29.99 in 10.0 mi SSE 10.4 mph - N/A   Partly Cloudy
4:53 PM 86.0 °F 88.8 °F 66.9 °F 53% 30.01 in 10.0 mi South 9.2 mph 19.6 mph N/A   Clear
5:35 PM 86.0 °F 88.8 °F 66.9 °F 53% 30.03 in 10.0 mi South 10.4 mph - N/A Thunderstorm Clear
5:53 PM 86.0 °F 89.4 °F 68.0 °F 55% 30.03 in 10.0 mi South 4.6 mph - N/A   Clear
6:53 PM 82.0 °F 84.5 °F 66.9 °F 60% 30.03 in 10.0 mi South 5.8 mph - N/A   Clear
7:53 PM 78.1 °F - 68.0 °F 71% 30.04 in 10.0 mi SSW 5.8 mph - N/A   Clear
8:53 PM 75.0 °F - 66.0 °F 73% 30.06 in 10.0 mi SSW 3.5 mph - N/A   Clear
9:53 PM 73.0 °F - 66.0 °F 79% 30.09 in 10.0 mi Calm Calm - N/A   Clear
10:53 PM 75.0 °F - 66.0 °F 73% 30.10 in 10.0 mi WNW 3.5 mph - N/A   Clear
11:53 PM 71.1 °F - 66.0 °F 84% 30.11 in 10.0 mi Calm Calm - N/A   Clear